Location: LDNL
(36.4545°S, 141.6685°E)
Time: 23:27:42
(UTC+10:00)

X-37B - Pass Details

Date: 03 July 2022
Orbit: 328 x 343 km, 45.0° (Epoch: 12 August)

Event Time Altitude Azimuth Distance (km) Brightness Sun altitude
Exits shadow 06:19:23 - 334° (NNW) 1,525 3.5 -16.9°
Reaches altitude 10° 06:20:01 10° 340° (NNW) 1,297 3.2 -16.8°
Maximum altitude 06:22:30 25° 38° (NE) 749 2.6 -16.3°
Drops below altitude 10° 06:24:59 10° 96° (E) 1,309 4.3 -15.8°
Sets 06:27:12 0° 110° (ESE) 2,155 5.2 -15.4°
